When you browse on this site, cookies collect data to enhance your experience and personalize the content and advertising you see.
Visit our Privacy Policy to learn more. By continuing to use the site, you agree to this use of cookies and data.
  • In Czech Republic
  • List of Countries
  • For 7 days
  • Water Temperature
  • Satellite Maps
  • Weather Map
  • Weather Widgets
  • user-avatar
    Login

    Hourly Weather Vancouver

    Today, 16 June, Sunday

    Time Temperature Precipitation Wind Pressure Humidity
    00:00 +14°C° 0 mm 3 mps 758 mmHg 90%
    01:00 +14°C° 0 mm 3 mps 758 mmHg 90%
    02:00 +13°C° 0 mm 3 mps 758 mmHg 91%
    03:00 +14°C° 0 mm 2 mps 758 mmHg 92%
    04:00 +13°C° 0 mm 2 mps 757 mmHg 92%
    05:00 +15°C° 0 mm 2 mps 757 mmHg 86%
    06:00 +16°C° 0 mm 2 mps 757 mmHg 80%
    07:00 +18°C° 0 mm 2 mps 757 mmHg 74%
    08:00 +20°C° 0 mm 2 mps 757 mmHg 68%
    09:00 +21°C° 0 mm 2 mps 757 mmHg 63%
    10:00 +24°C° 0 mm 1 mps 757 mmHg 57%
    11:00 +25°C° 0 mm 2 mps 757 mmHg 55%
    12:00 +25°C° 0 mm 2 mps 756 mmHg 52%
    13:00 +26°C° 0 mm 2 mps 756 mmHg 50%
    14:00 +26°C° 0 mm 2 mps 756 mmHg 51%
    15:00 +25°C° 0 mm 2 mps 756 mmHg 53%
    16:00 +25°C° 0 mm 1 mps 756 mmHg 54%
    17:00 +24°C° 0 mm 1 mps 756 mmHg 58%
    18:00 +23°C° 0 mm 1 mps 756 mmHg 63%
    19:00 +22°C° 0 mm 1 mps 756 mmHg 67%
    20:00 +19°C° 0 mm 2 mps 756 mmHg 74%
    21:00 +18°C° 0 mm 2 mps 757 mmHg 81%
    22:00 +16°C° 0 mm 2 mps 757 mmHg 88%
    23:00 +15°C° 0 mm 2 mps 757 mmHg 89%

    Tomorrow, 17 June, Monday

    Time Temperature Precipitation Wind Pressure Humidity
    00:00 +15°C° 0 mm 2 mps 758 mmHg 90%
    01:00 +14°C° 0 mm 3 mps 758 mmHg 90%
    02:00 +14°C° 0 mm 2 mps 758 mmHg 92%
    03:00 +14°C° 0 mm 2 mps 758 mmHg 93%
    04:00 +13°C° 0 mm 2 mps 758 mmHg 94%
    05:00 +15°C° 0 mm 2 mps 758 mmHg 88%
    06:00 +16°C° 0 mm 2 mps 758 mmHg 82%
    07:00 +18°C° 0 mm 3 mps 758 mmHg 76%
    08:00 +19°C° 0 mm 2 mps 758 mmHg 73%
    09:00 +19°C° 0 mm 2 mps 759 mmHg 71%
    10:00 +20°C° 0 mm 2 mps 759 mmHg 68%
    11:00 +21°C° 0 mm 2 mps 758 mmHg 66%
    12:00 +23°C° 0 mm 2 mps 758 mmHg 64%
    13:00 +23°C° 0 mm 2 mps 758 mmHg 62%
    14:00 +24°C° 0 mm 2 mps 758 mmHg 61%
    15:00 +24°C° 0 mm 2 mps 758 mmHg 60%
    16:00 +24°C° 0 mm 3 mps 758 mmHg 59%
    17:00 +23°C° 0 mm 2 mps 758 mmHg 64%
    18:00 +21°C° 0 mm 2 mps 758 mmHg 69%
    19:00 +20°C° 0 mm 2 mps 758 mmHg 73%
    20:00 +19°C° 0 mm 2 mps 758 mmHg 79%
    21:00 +17°C° 0 mm 2 mps 759 mmHg 84%
    22:00 +16°C° 0 mm 2 mps 759 mmHg 89%
    23:00 +16°C° 0 mm 3 mps 759 mmHg 89%

    Day after tomorrow, 18 June, Tuesday

    Time Temperature Precipitation Wind Pressure Humidity
    00:00 +14°C° 0 mm 3 mps 759 mmHg 89%
    01:00 +14°C° 0 mm 3 mps 759 mmHg 89%
    02:00 +15°C° 0 mm 2 mps 759 mmHg 89%
    03:00 +15°C° 0 mm 2 mps 759 mmHg 89%
    04:00 +15°C° 0 mm 1 mps 760 mmHg 88%
    05:00 +15°C° 0 mm 2 mps 760 mmHg 88%
    06:00 +16°C° 0 mm 2 mps 760 mmHg 88%
    07:00 +16°C° 0 mm 2 mps 760 mmHg 89%
    08:00 +17°C° 0 mm 2 mps 760 mmHg 84%
    09:00 +18°C° 0 mm 2 mps 760 mmHg 79%
    10:00 +19°C° 0 mm 3 mps 760 mmHg 74%
    11:00 +20°C° 0 mm 3 mps 760 mmHg 69%
    12:00 +21°C° 0 mm 3 mps 760 mmHg 64%
    13:00 +22°C° 0 mm 3 mps 759 mmHg 59%
    14:00 +22°C° 0 mm 3 mps 759 mmHg 57%
    15:00 +22°C° 0 mm 3 mps 759 mmHg 55%
    16:00 +22°C° 0 mm 3 mps 759 mmHg 54%
    17:00 +21°C° 0 mm 2 mps 759 mmHg 57%
    18:00 +20°C° 0 mm 2 mps 759 mmHg 61%
    19:00 +20°C° 0 mm 1 mps 759 mmHg 65%
    20:00 +17°C° 0 mm 2 mps 759 mmHg 70%
    21:00 +15°C° 0 mm 2 mps 759 mmHg 75%
    22:00 +14°C° 0 mm 2 mps 760 mmHg 79%
    23:00 +13°C° 0 mm 2 mps 760 mmHg 82%

    19 June, Wednesday

    Time Temperature Precipitation Wind Pressure Humidity
    00:00 +11°C° 0 mm 3 mps 760 mmHg 84%
    01:00 +11°C° 0 mm 3 mps 760 mmHg 87%
    02:00 +11°C° 0 mm 3 mps 760 mmHg 88%
    03:00 +10°C° 0 mm 3 mps 760 mmHg 89%
    04:00 +10°C° 0 mm 3 mps 760 mmHg 90%
    05:00 +11°C° 0 mm 4 mps 760 mmHg 84%
    06:00 +12°C° 0 mm 4 mps 760 mmHg 79%
    07:00 +13°C° 0 mm 4 mps 760 mmHg 73%
    08:00 +14°C° 0 mm 4 mps 760 mmHg 68%
    09:00 +15°C° 0 mm 5 mps 760 mmHg 62%
    10:00 +16°C° 0 mm 5 mps 760 mmHg 56%
    11:00 +16°C° 0 mm 5 mps 760 mmHg 54%
    12:00 +17°C° 0 mm 4 mps 760 mmHg 52%
    13:00 +18°C° 0 mm 4 mps 760 mmHg 50%
    14:00 +18°C° 0 mm 3 mps 759 mmHg 51%
    15:00 +18°C° 0 mm 3 mps 759 mmHg 52%
    16:00 +18°C° 0 mm 2 mps 759 mmHg 53%
    17:00 +17°C° 0.1 mm 2 mps 758 mmHg 60%
    18:00 +16°C° 0.1 mm 2 mps 758 mmHg 67%
    19:00 +14°C° 0.1 mm 2 mps 758 mmHg 75%
    20:00 +14°C° 0 mm 2 mps 758 mmHg 78%
    21:00 +12°C° 0 mm 3 mps 758 mmHg 82%
    22:00 +11°C° 0 mm 3 mps 759 mmHg 86%
    23:00 +11°C° 0.1 mm 4 mps 758 mmHg 86%

    20 June, Thursday

    Time Temperature Precipitation Wind Pressure Humidity
    00:00 +11°C° 0.1 mm 4 mps 758 mmHg 87%
    01:00 +10°C° 0.1 mm 5 mps 758 mmHg 87%
    02:00 +10°C° 0 mm 4 mps 758 mmHg 88%
    03:00 +10°C° 0 mm 4 mps 758 mmHg 88%
    04:00 +10°C° 0 mm 4 mps 759 mmHg 88%
    05:00 +10°C° 0 mm 3 mps 759 mmHg 86%
    06:00 +11°C° 0 mm 3 mps 759 mmHg 84%
    07:00 +12°C° 0 mm 3 mps 759 mmHg 81%
    08:00 +13°C° 0 mm 3 mps 759 mmHg 76%
    09:00 +14°C° 0 mm 3 mps 759 mmHg 71%
    10:00 +16°C° 0 mm 3 mps 758 mmHg 66%
    11:00 +17°C° 0.1 mm 3 mps 758 mmHg 62%
    12:00 +18°C° 0.1 mm 3 mps 758 mmHg 58%
    13:00 +19°C° 0.1 mm 2 mps 758 mmHg 55%
    14:00 +19°C° 0 mm 3 mps 758 mmHg 53%
    15:00 +19°C° 0 mm 3 mps 757 mmHg 51%
    16:00 +19°C° 0 mm 3 mps 757 mmHg 49%
    17:00 +18°C° 0 mm 2 mps 757 mmHg 53%
    18:00 +17°C° 0 mm 2 mps 757 mmHg 58%
    19:00 +17°C° 0 mm 2 mps 757 mmHg 62%
    20:00 +15°C° 0 mm 2 mps 758 mmHg 68%
    21:00 +14°C° 0 mm 2 mps 758 mmHg 74%
    22:00 +12°C° 0 mm 2 mps 759 mmHg 81%
    23:00 +13°C° 0 mm 2 mps 759 mmHg 78%

    21 June, Friday

    Time Temperature Precipitation Wind Pressure Humidity
    00:00 +13°C° 0 mm 2 mps 759 mmHg 76%
    01:00 +13°C° 0 mm 2 mps 759 mmHg 73%
    02:00 +13°C° 0 mm 2 mps 760 mmHg 75%
    03:00 +12°C° 0 mm 1 mps 760 mmHg 77%
    04:00 +12°C° 0 mm 1 mps 760 mmHg 79%
    05:00 +13°C° 0 mm 1 mps 760 mmHg 74%
    06:00 +15°C° 0 mm 1 mps 760 mmHg 69%
    07:00 +16°C° 0 mm 1 mps 760 mmHg 64%
    08:00 +18°C° 0 mm 2 mps 760 mmHg 61%
    09:00 +19°C° 0 mm 2 mps 760 mmHg 57%
    10:00 +21°C° 0 mm 2 mps 760 mmHg 54%
    11:00 +21°C° 0 mm 2 mps 759 mmHg 52%
    12:00 +23°C° 0 mm 2 mps 759 mmHg 51%
    13:00 +24°C° 0 mm 2 mps 759 mmHg 49%
    14:00 +24°C° 0 mm 2 mps 758 mmHg 49%
    15:00 +24°C° 0 mm 2 mps 758 mmHg 48%
    16:00 +24°C° 0 mm 2 mps 758 mmHg 47%
    17:00 +23°C° 0 mm 2 mps 758 mmHg 52%
    18:00 +22°C° 0 mm 1 mps 758 mmHg 57%
    19:00 +21°C° 0 mm 1 mps 758 mmHg 62%
    20:00 +18°C° 0 mm 2 mps 758 mmHg 68%
    21:00 +17°C° 0 mm 2 mps 758 mmHg 73%
    22:00 +15°C° 0 mm 2 mps 758 mmHg 79%
    23:00 +15°C° 0 mm 2 mps 758 mmHg 80%
    Show more